When you browse on this site, cookies collect data to enhance your experience and personalize the content and advertising you see.
Visit our Privacy Policy to learn more. By continuing to use the site, you agree to this use of cookies and data.
  • In Deutschland
  • Länderverzeichnis
  • Für 7 Tage
  • Wassertemperatur
  • Satellitenkarten
  • Wetterkarte
  • Widgets
  • user-avatar
    Anmelden

    Stündliche Wetter Kowalicha

    Heute, 27 Mai, Montag

    Zeit Temperatur Niederschläge Wind Luftdruck Luftfeuchtigkeit
    00:00 +13°C° 0 mm 3 m/S 750 mmHg 82%
    01:00 +13°C° 0 mm 3 m/S 750 mmHg 84%
    02:00 +13°C° 0 mm 3 m/S 750 mmHg 86%
    03:00 +13°C° 0 mm 3 m/S 750 mmHg 88%
    04:00 +13°C° 0 mm 3 m/S 750 mmHg 90%
    05:00 +14°C° 0 mm 4 m/S 750 mmHg 84%
    06:00 +17°C° 0 mm 4 m/S 750 mmHg 79%
    07:00 +19°C° 0 mm 4 m/S 750 mmHg 73%
    08:00 +20°C° 0.1 mm 5 m/S 749 mmHg 68%
    09:00 +22°C° 0.1 mm 5 m/S 749 mmHg 62%
    10:00 +24°C° 0.1 mm 6 m/S 749 mmHg 56%
    11:00 +24°C° 0 mm 6 m/S 749 mmHg 54%
    12:00 +26°C° 0 mm 5 m/S 749 mmHg 52%
    13:00 +26°C° 0 mm 5 m/S 748 mmHg 50%
    14:00 +26°C° 0 mm 5 m/S 748 mmHg 52%
    15:00 +26°C° 0 mm 5 m/S 748 mmHg 53%
    16:00 +26°C° 0 mm 4 m/S 748 mmHg 55%
    17:00 +25°C° 0.1 mm 4 m/S 748 mmHg 62%
    18:00 +22°C° 0.1 mm 3 m/S 748 mmHg 69%
    19:00 +20°C° 0.1 mm 3 m/S 748 mmHg 75%
    20:00 +20°C° 0 mm 3 m/S 748 mmHg 78%
    21:00 +19°C° 0 mm 2 m/S 748 mmHg 80%
    22:00 +18°C° 0 mm 2 m/S 748 mmHg 82%
    23:00 +18°C° 0.1 mm 2 m/S 748 mmHg 85%

    Morgen, 28 Mai, Dienstag

    Zeit Temperatur Niederschläge Wind Luftdruck Luftfeuchtigkeit
    00:00 +18°C° 0.1 mm 2 m/S 747 mmHg 88%
    01:00 +17°C° 0.1 mm 2 m/S 747 mmHg 90%
    02:00 +17°C° 0.4 mm 2 m/S 747 mmHg 92%
    03:00 +17°C° 0.4 mm 3 m/S 746 mmHg 94%
    04:00 +17°C° 0.4 mm 3 m/S 746 mmHg 95%
    05:00 +17°C° 0.7 mm 3 m/S 746 mmHg 94%
    06:00 +18°C° 0.7 mm 3 m/S 745 mmHg 92%
    07:00 +18°C° 0.7 mm 3 m/S 745 mmHg 90%
    08:00 +20°C° 0.2 mm 3 m/S 745 mmHg 85%
    09:00 +21°C° 0.2 mm 3 m/S 745 mmHg 80%
    10:00 +22°C° 0.2 mm 4 m/S 745 mmHg 75%
    11:00 +22°C° 0.5 mm 4 m/S 745 mmHg 73%
    12:00 +23°C° 0.5 mm 4 m/S 744 mmHg 71%
    13:00 +23°C° 0.5 mm 5 m/S 744 mmHg 69%
    14:00 +23°C° 1.2 mm 4 m/S 744 mmHg 73%
    15:00 +22°C° 1.2 mm 3 m/S 745 mmHg 77%
    16:00 +21°C° 1.2 mm 3 m/S 745 mmHg 81%
    17:00 +20°C° 1.1 mm 2 m/S 745 mmHg 83%
    18:00 +19°C° 1.1 mm 2 m/S 745 mmHg 86%
    19:00 +19°C° 1.1 mm 2 m/S 746 mmHg 88%
    20:00 +17°C° 0.8 mm 3 m/S 746 mmHg 90%
    21:00 +15°C° 0.8 mm 4 m/S 746 mmHg 92%
    22:00 +14°C° 0.8 mm 5 m/S 747 mmHg 94%
    23:00 +13°C° 0.1 mm 5 m/S 747 mmHg 94%

    übermorgen, 29 Mai, Mittwoch

    Zeit Temperatur Niederschläge Wind Luftdruck Luftfeuchtigkeit
    00:00 +12°C° 0.1 mm 5 m/S 747 mmHg 93%
    01:00 +12°C° 0.1 mm 5 m/S 748 mmHg 93%
    02:00 +10°C° 0.1 mm 5 m/S 748 mmHg 91%
    03:00 +9°C° 0.1 mm 5 m/S 749 mmHg 90%
    04:00 +9°C° 0.1 mm 5 m/S 749 mmHg 89%
    05:00 +9°C° 0.1 mm 5 m/S 750 mmHg 88%
    06:00 +9°C° 0.1 mm 5 m/S 751 mmHg 87%
    07:00 +10°C° 0.1 mm 4 m/S 751 mmHg 86%
    08:00 +10°C° 0 mm 4 m/S 752 mmHg 83%
    09:00 +11°C° 0 mm 4 m/S 752 mmHg 81%
    10:00 +12°C° 0 mm 4 m/S 753 mmHg 78%
    11:00 +13°C° 0 mm 4 m/S 753 mmHg 74%
    12:00 +13°C° 0 mm 3 m/S 753 mmHg 71%
    13:00 +14°C° 0 mm 3 m/S 754 mmHg 67%
    14:00 +14°C° 0 mm 3 m/S 754 mmHg 68%
    15:00 +16°C° 0 mm 3 m/S 754 mmHg 69%
    16:00 +16°C° 0 mm 3 m/S 754 mmHg 70%
    17:00 +16°C° 0 mm 3 m/S 754 mmHg 70%
    18:00 +14°C° 0 mm 3 m/S 754 mmHg 71%
    19:00 +14°C° 0 mm 4 m/S 755 mmHg 71%
    20:00 +13°C° 0 mm 4 m/S 755 mmHg 72%
    21:00 +11°C° 0 mm 3 m/S 755 mmHg 73%
    22:00 +10°C° 0 mm 3 m/S 756 mmHg 73%
    23:00 +9°C° 0 mm 3 m/S 756 mmHg 75%

    30 Mai, Donnerstag

    Zeit Temperatur Niederschläge Wind Luftdruck Luftfeuchtigkeit
    00:00 +9°C° 0 mm 3 m/S 756 mmHg 76%
    01:00 +8°C° 0 mm 3 m/S 756 mmHg 78%
    02:00 +7°C° 0 mm 3 m/S 756 mmHg 78%
    03:00 +7°C° 0 mm 3 m/S 756 mmHg 79%
    04:00 +5°C° 0 mm 3 m/S 756 mmHg 79%
    05:00 +8°C° 0 mm 2 m/S 756 mmHg 76%
    06:00 +9°C° 0 mm 2 m/S 756 mmHg 72%
    07:00 +10°C° 0 mm 2 m/S 757 mmHg 68%
    08:00 +12°C° 0 mm 2 m/S 757 mmHg 69%
    09:00 +13°C° 0 mm 2 m/S 757 mmHg 70%
    10:00 +13°C° 0 mm 2 m/S 757 mmHg 71%
    11:00 +14°C° 0 mm 2 m/S 757 mmHg 69%
    12:00 +14°C° 0 mm 2 m/S 757 mmHg 67%
    13:00 +15°C° 0 mm 2 m/S 756 mmHg 65%
    14:00 +16°C° 0 mm 2 m/S 756 mmHg 61%
    15:00 +17°C° 0 mm 2 m/S 756 mmHg 58%
    16:00 +18°C° 0 mm 1 m/S 756 mmHg 54%
    17:00 +18°C° 0 mm 1 m/S 756 mmHg 58%
    18:00 +16°C° 0 mm 1 m/S 756 mmHg 63%
    19:00 +15°C° 0 mm 1 m/S 756 mmHg 67%
    20:00 +14°C° 0 mm 1 m/S 756 mmHg 68%
    21:00 +13°C° 0 mm 1 m/S 756 mmHg 69%
    22:00 +12°C° 0 mm 1 m/S 756 mmHg 70%
    23:00 +11°C° 0 mm 1 m/S 756 mmHg 71%

    31 Mai, Freitag

    Zeit Temperatur Niederschläge Wind Luftdruck Luftfeuchtigkeit
    00:00 +11°C° 0 mm 1 m/S 755 mmHg 73%
    01:00 +10°C° 0 mm 1 m/S 755 mmHg 74%
    02:00 +10°C° 0 mm 1 m/S 755 mmHg 76%
    03:00 +10°C° 0 mm 1 m/S 754 mmHg 78%
    04:00 +10°C° 0 mm 1 m/S 754 mmHg 80%
    05:00 +12°C° 0 mm 1 m/S 754 mmHg 77%
    06:00 +13°C° 0 mm 2 m/S 754 mmHg 73%
    07:00 +15°C° 0 mm 2 m/S 753 mmHg 70%
    08:00 +17°C° 0 mm 3 m/S 753 mmHg 65%
    09:00 +18°C° 0 mm 3 m/S 752 mmHg 60%
    10:00 +20°C° 0 mm 3 m/S 752 mmHg 55%
    11:00 +21°C° 0 mm 3 m/S 752 mmHg 53%
    12:00 +22°C° 0 mm 3 m/S 751 mmHg 51%
    13:00 +24°C° 0 mm 3 m/S 751 mmHg 48%
    14:00 +21°C° 0.6 mm 5 m/S 751 mmHg 58%
    15:00 +20°C° 0.6 mm 7 m/S 752 mmHg 69%
    16:00 +17°C° 0.6 mm 8 m/S 752 mmHg 79%
    17:00 +13°C° 0.1 mm 8 m/S 753 mmHg 80%
    18:00 +11°C° 0.1 mm 8 m/S 754 mmHg 82%
    19:00 +8°C° 0.1 mm 7 m/S 755 mmHg 83%
    20:00 +8°C° 0 mm 6 m/S 756 mmHg 81%
    21:00 +8°C° 0 mm 6 m/S 757 mmHg 78%
    22:00 +8°C° 0 mm 5 m/S 757 mmHg 76%
    23:00 +8°C° 0 mm 5 m/S 758 mmHg 75%

    1 Juni, Samstag

    Zeit Temperatur Niederschläge Wind Luftdruck Luftfeuchtigkeit
    00:00 +7°C° 0 mm 5 m/S 758 mmHg 74%
    01:00 +7°C° 0 mm 5 m/S 759 mmHg 73%
    02:00 +6°C° 0 mm 5 m/S 759 mmHg 73%
    03:00 +5°C° 0 mm 4 m/S 759 mmHg 74%
    04:00 +5°C° 0 mm 4 m/S 760 mmHg 74%
    05:00 +6°C° 0 mm 4 m/S 760 mmHg 70%
    06:00 +8°C° 0 mm 4 m/S 760 mmHg 67%
    07:00 +10°C° 0 mm 4 m/S 761 mmHg 64%
    08:00 +12°C° 0 mm 5 m/S 761 mmHg 59%
    09:00 +13°C° 0 mm 5 m/S 761 mmHg 53%
    10:00 +14°C° 0 mm 5 m/S 761 mmHg 48%
    11:00 +15°C° 0 mm 5 m/S 761 mmHg 48%
    12:00 +16°C° 0 mm 5 m/S 761 mmHg 47%
    13:00 +16°C° 0 mm 5 m/S 761 mmHg 47%
    14:00 +16°C° 0 mm 5 m/S 761 mmHg 48%
    15:00 +16°C° 0 mm 5 m/S 761 mmHg 50%
    16:00 +16°C° 0 mm 5 m/S 762 mmHg 51%
    17:00 +15°C° 0 mm 4 m/S 762 mmHg 56%
    18:00 +13°C° 0 mm 4 m/S 762 mmHg 61%
    19:00 +12°C° 0 mm 3 m/S 762 mmHg 66%
    20:00 +11°C° 0 mm 3 m/S 763 mmHg 68%
    21:00 +10°C° 0 mm 3 m/S 763 mmHg 71%
    22:00 +8°C° 0 mm 3 m/S 763 mmHg 73%
    23:00 +8°C° 0 mm 3 m/S 764 mmHg 75%
    Mehr zeigen